Date String (YYYY-MM-DD hh:mm:ss) UTC,Instrument flags,Ambient pressure (hPa),Sample flow (lpm),Bypass flow (lpm),Sample temperature (°C),Ambient temperature (°C),ASC tube jacket temperature (°C),LED temperature (°C),Box temperature (°C),Sample RH (%),Span deviation,Mass concentration (μg/m³),Mass concentration (μg/m³),Mass concentration (μg/m³)
DateTimeUTC,F1_M11,P_M11,Q1_M11,Q2_M11,T1_M11,T2_M11,T3_M11,T4_M11,T5_M11,U1_M11,ZSPAN_M11,X0_M11,X2_M11,X1_M11
2022-05-15 07:00:00,,0827.7,5.01,0.00,29.9,28.7,00.0,38.8,31.7,09.9,0000.0,0010.03,0003.77,0002.34
2022-05-15 07:01:00,,0827.7,5.00,0.00,29.9,28.7,00.0,38.8,31.7,09.7,0000.0,0010.74,0003.79,0002.37
2022-05-15 07:02:00,,0827.7,5.01,0.00,29.9,28.7,00.0,38.8,31.7,09.7,0000.0,0011.12,0003.80,0002.40
2022-05-15 07:03:00,,0827.8,5.00,0.00,30.0,28.7,00.0,38.8,31.7,09.6,0000.0,0011.63,0003.82,0002.41
2022-05-15 07:04:00,,0827.8,4.99,0.00,30.0,28.8,00.0,38.8,31.7,09.6,0000.0,0011.20,0003.80,0002.42
2022-05-15 07:05:00,,0827.8,5.00,0.00,30.0,28.8,00.0,38.8,31.7,09.6,0000.0,0010.81,0003.83,0002.43
2022-05-15 07:06:00,,0827.8,5.00,0.00,30.0,28.8,00.0,38.8,31.7,09.6,0000.0,0010.70,0003.87,0002.44
2022-05-15 07:07:00,,0827.7,5.01,0.00,30.0,28.8,00.0,38.9,31.7,09.5,0000.0,0010.77,0003.88,0002.43
2022-05-15 07:08:00,,0827.7,5.00,0.00,30.0,28.9,00.0,38.9,31.8,09.5,0000.0,0010.86,0003.87,0002.44
2022-05-15 07:09:00,,0827.7,5.01,0.00,30.0,28.9,00.0,38.9,31.8,09.5,0000.0,0011.18,0003.88,0002.43
2022-05-15 07:10:00,,0827.7,5.00,0.00,30.0,28.9,00.0,38.9,31.8,09.5,0000.0,0010.92,0003.87,0002.41
2022-05-15 07:11:00,,0827.8,5.00,0.00,30.1,29.0,00.0,38.9,31.8,09.5,0000.0,0010.64,0003.85,0002.41
2022-05-15 07:12:00,,0827.8,5.00,0.00,30.1,29.0,00.0,38.9,31.9,09.7,0000.0,0009.86,0003.82,0002.40
2022-05-15 07:13:00,,0827.8,4.98,0.00,30.1,29.0,00.0,38.9,31.9,09.8,0000.0,0009.36,0003.84,0002.40
2022-05-15 07:14:00,,0827.9,5.01,0.00,30.1,29.1,00.0,39.0,31.9,09.9,0000.0,0009.06,0003.86,0002.39
2022-05-15 07:15:00,,0827.8,5.00,0.00,30.1,29.1,00.0,39.0,31.9,10.1,0000.0,0009.28,0003.89,0002.40
2022-05-15 07:16:00,,0827.8,5.00,0.00,30.1,29.1,00.0,39.0,31.9,10.2,0000.0,0009.68,0003.87,0002.40
2022-05-15 07:17:00,,0827.8,5.01,0.00,30.1,29.1,00.0,39.0,31.9,10.3,0000.0,0010.72,0003.86,0002.41
2022-05-15 07:18:00,,0827.9,5.00,0.00,30.1,29.1,00.0,39.0,31.9,10.3,0000.0,0010.54,0003.78,0002.41
2022-05-15 07:19:00,,0827.9,5.00,0.00,30.2,29.1,00.0,39.0,31.9,10.4,0000.0,0010.37,0003.76,0002.41
2022-05-15 07:20:00,,0827.9,4.99,0.00,30.2,29.2,00.0,39.0,31.9,10.7,0000.0,0009.95,0003.73,0002.40
2022-05-15 07:21:00,,0827.9,5.00,0.00,30.2,29.2,00.0,39.0,31.9,11.0,0000.0,0009.62,0003.73,0002.40
2022-05-15 07:22:00,,0827.9,5.01,0.00,30.2,29.2,00.0,39.1,32.0,10.9,0000.0,0009.88,0003.77,0002.40
2022-05-15 07:23:00,,0827.8,5.00,0.00,30.2,29.2,00.0,39.1,32.0,10.9,0000.0,0010.56,0003.79,0002.38
2022-05-15 07:24:00,,0827.8,4.99,0.00,30.2,29.2,00.0,39.1,32.0,10.9,0000.0,0010.50,0003.76,0002.37
2022-05-15 07:25:00,,0827.8,5.00,0.00,30.2,29.2,00.0,39.1,31.9,10.9,0000.0,0010.34,0003.72,0002.35
2022-05-15 07:26:00,,0827.8,5.00,0.00,30.2,29.2,00.0,39.1,32.0,11.0,0000.0,0010.29,0003.68,0002.33
2022-05-15 07:27:00,,0827.9,5.01,0.00,30.2,29.2,00.0,39.1,32.0,10.9,0000.0,0010.56,0003.69,0002.30
2022-05-15 07:28:00,,0827.9,5.00,0.00,30.2,29.2,00.0,39.1,32.0,10.8,0000.0,0009.90,0003.68,0002.27
2022-05-15 07:29:00,,0828.0,4.98,0.00,30.2,29.2,00.0,39.1,32.0,10.7,0000.0,0010.09,0003.71,0002.24
2022-05-15 07:30:00,,0828.1,5.01,0.00,30.2,29.2,00.0,39.1,32.0,10.8,0000.0,0010.34,0003.73,0002.22
2022-05-15 07:31:00,,0828.3,4.98,0.00,30.2,29.2,00.0,39.1,32.0,10.8,0000.0,0011.32,0003.79,0002.23
2022-05-15 07:32:00,,0828.1,5.01,0.00,30.2,29.2,00.0,39.1,32.0,10.9,0000.0,0011.42,0003.76,0002.21
2022-05-15 07:33:00,,0828.3,5.01,0.00,30.2,29.2,00.0,39.1,32.0,10.9,0000.0,0012.02,0003.69,0002.19
2022-05-15 07:34:00,,0828.1,5.00,0.00,30.2,29.2,00.0,39.1,32.0,10.8,0000.0,0011.96,0003.66,0002.19
2022-05-15 07:35:00,,0828.3,5.00,0.00,30.2,29.2,00.0,39.1,32.0,10.8,0000.0,0012.40,0003.69,0002.19
2022-05-15 07:36:00,,0828.2,5.00,0.00,30.2,29.2,00.0,39.1,32.0,10.7,0000.0,0013.01,0003.70,0002.21
2022-05-15 07:37:00,,0828.4,4.99,0.00,30.2,29.2,00.0,39.2,32.0,10.6,0000.0,0013.10,0003.69,0002.22
2022-05-15 07:38:00,,0828.0,5.01,0.00,30.2,29.2,00.0,39.2,32.0,10.6,0000.0,0012.84,0003.71,0002.25
2022-05-15 07:39:00,,0828.1,5.00,0.00,30.2,29.2,00.0,39.2,32.0,10.5,0000.0,0012.97,0003.74,0002.28
2022-05-15 07:40:00,,0828.2,5.01,0.00,30.3,29.2,00.0,39.2,32.0,10.5,0000.0,0013.14,0003.78,0002.32
2022-05-15 07:41:00,,0828.1,4.99,0.00,30.3,29.2,00.0,39.2,32.0,10.6,0000.0,0013.75,0003.83,0002.37
2022-05-15 07:42:00,,0828.1,5.00,0.00,30.3,29.2,00.0,39.2,32.0,10.6,0000.0,0013.68,0003.81,0002.39
2022-05-15 07:43:00,,0828.1,5.02,0.00,30.2,29.2,00.0,39.2,32.0,10.6,0000.0,0013.93,0003.85,0002.43
2022-05-15 07:44:00,,0828.2,4.99,0.00,30.3,29.2,00.0,39.2,32.0,10.6,0000.0,0013.69,0003.88,0002.47
2022-05-15 07:45:00,,0828.1,4.99,0.00,30.3,29.2,00.0,39.2,32.0,10.5,0000.0,0014.44,0003.92,0002.51
2022-05-15 07:46:00,,0828.2,5.00,0.00,30.3,29.2,00.0,39.2,32.0,10.4,0000.0,0014.09,0003.88,0002.52
2022-05-15 07:47:00,,0828.2,5.00,0.00,30.3,29.2,00.0,39.2,32.0,10.4,0000.0,0013.64,0003.90,0002.52
2022-05-15 07:48:00,,0828.3,5.01,0.00,30.3,28.9,00.0,39.2,31.9,10.5,0000.0,0013.58,0003.97,0002.55
2022-05-15 07:49:00,,0828.2,5.00,0.00,30.1,26.5,00.0,39.2,31.4,10.5,0000.0,0013.78,0003.98,0002.54
2022-05-15 07:50:00,,0828.3,4.99,0.00,30.0,25.7,00.0,39.1,31.2,10.6,0000.0,0013.95,0004.01,0002.53
2022-05-15 07:51:00,,0828.2,5.01,0.00,29.9,25.9,00.0,39.0,31.2,10.6,0000.0,0013.87,0004.00,0002.51
2022-05-15 07:52:00,,0828.2,4.99,0.00,29.8,26.4,00.0,39.0,31.2,10.7,0000.0,0013.89,0003.95,0002.49
2022-05-15 07:53:00,,0828.2,5.01,0.00,29.8,26.8,00.0,38.9,31.2,10.7,0000.0,0013.71,0003.98,0002.49
2022-05-15 07:54:00,,0828.2,5.00,0.00,29.7,27.2,00.0,38.9,31.3,10.8,0000.0,0013.43,0003.97,0002.50
2022-05-15 07:55:00,,0828.3,5.00,0.00,29.7,27.5,00.0,38.8,31.3,10.7,0000.0,0013.13,0003.97,0002.48
2022-05-15 07:56:00,,0828.3,5.00,0.00,29.7,27.7,00.0,38.8,31.4,10.7,0000.0,0011.98,0003.95,0002.47
2022-05-15 07:57:00,,0828.3,5.01,0.00,29.8,28.0,00.0,38.8,31.4,10.7,0000.0,0012.06,0003.96,0002.48
2022-05-15 07:58:00,,0828.3,5.00,0.00,29.8,28.1,00.0,38.8,31.5,10.7,0000.0,0012.12,0003.97,0002.48
2022-05-15 07:59:00,,0828.3,5.00,0.00,29.8,28.3,00.0,38.8,31.5,10.7,0000.0,0012.01,0003.93,0002.46
